Theta_e
341 327 321 324 325 325 326 326 325 325 325 327 329 330 325 322 321 325 326 327 327 329 330 332 335 335 334 336 336 336 343 344 343 346 346 345 343 343 345 342 345 349 347
338 334 324 325 326 326 327 327 328 329 332 336 337 335 331 327 323 326 327 327 328 328 329 330 335 335 334 335 337 335 343 344 342 344 343 344 341 345 346 342 349 346 347
337 336 331 326 327 326 327 329 330 332 335 338 338 337 333 332 331 329 329 329 329 329 329 330 330 336 335 335 336 337 341 344 342 342 343 344 343 343 345 345 347 342 346
330 335 337 332 325 322 326 331 334 336 338 338 339 338 336 333 333 332 331 331 331 330 330 329 329 331 334 335 336 338 339 343 341 342 342 343 346 344 343 346 342 336 338
328 330 332 334 330 325 326 333 336 338 338 337 337 335 334 334 334 334 334 333 332 331 330 329 329 330 334 335 335 338 338 341 341 342 343 344 345 345 342 343 343 341 343
325 329 331 328 326 324 326 337 340 338 338 336 335 334 333 332 332 332 332 333 333 332 331 329 330 334 335 336 335 335 337 340 340 342 344 344 344 344 341 341 337 340 343
324 325 329 327 325 324 323 336 339 339 337 337 335 334 333 334 333 332 332 332 331 332 332 329 330 333 335 335 335 335 337 338 340 343 343 343 342 343 339 338 339 341 341
325 325 328 329 326 324 322 319 326 330 333 331 330 331 332 331 331 330 330 330 330 331 332 330 328 329 331 335 333 333 335 339 341 341 343 342 343 343 339 338 338 339 337
325 325 325 325 325 324 322 322 322 322 322 321 321 322 327 328 328 328 329 330 330 331 331 331 328 328 329 332 331 331 332 338 335 341 343 342 342 341 339 336 335 333 332
324 323 323 323 322 322 326 327 326 324 325 326 325 325 326 325 325 326 328 329 330 331 331 331 330 328 328 330 331 331 332 337 333 341 342 343 342 341 337 333 331 328 333
323 323 322 322 322 324 325 327 326 327 329 327 327 326 325 324 325 327 328 329 329 331 331 329 329 330 328 329 332 329 332 333 337 342 342 343 342 341 337 335 333 331 331
323 323 323 321 324 327 327 326 326 327 328 327 325 324 324 324 324 325 326 328 329 329 329 330 330 330 328 329 330 328 330 332 336 339 340 341 342 342 339 337 334 334 334
324 324 322 324 326 329 329 328 327 326 327 327 325 324 323 324 323 325 326 327 326 328 328 329 329 329 327 325 329 331 330 330 334 339 340 340 342 341 339 336 333 333 330
324 323 326 328 329 330 331 330 327 327 327 325 327 326 325 325 326 326 327 326 326 327 326 327 327 328 326 324 329 332 332 330 337 338 340 338 339 340 338 336 333 332 332
325 324 328 329 330 332 331 329 329 328 327 328 327 326 326 323 326 326 326 325 326 326 326 326 327 327 325 322 330 331 333 330 336 337 341 337 337 339 338 335 333 333 334
325 325 328 329 330 330 330 329 330 330 329 328 326 327 325 325 325 325 325 325 325 324 325 326 328 327 327 325 330 333 333 333 334 338 340 338 338 336 335 335 331 329 332
325 327 328 329 328 329 330 330 329 330 329 328 327 326 325 324 325 326 325 324 324 324 324 325 327 329 329 329 331 332 333 334 334 338 340 338 338 335 333 332 332 334 332
325 328 328 328 327 328 330 330 329 330 331 330 329 325 324 320 326 327 326 325 324 324 324 325 326 328 330 328 331 332 331 334 332 337 339 337 337 334 333 332 334 334 330
325 327 328 328 329 330 330 330 330 331 332 330 329 324 322 320 327 327 326 327 325 324 324 326 327 329 331 330 331 331 334 333 335 339 338 336 334 333 332 331 331 332 329
326 327 329 328 329 330 328 329 330 333 333 331 329 326 321 321 327 328 327 326 327 324 326 326 327 328 330 330 332 331 332 333 336 338 337 336 334 333 329 332 330 333 330
325 327 330 329 329 329 328 330 331 331 329 330 329 329 327 327 325 327 327 327 327 326 325 328 328 328 331 330 332 332 334 338 336 336 337 335 333 333 332 328 329 327 330
325 327 329 329 329 329 330 331 333 333 332 332 331 329 329 328 326 327 327 327 327 327 327 328 327 329 329 331 332 334 333 334 336 336 335 334 332 331 330 331 330 327 329
327 326 329 329 329 330 332 330 331 332 332 334 331 330 329 328 328 328 329 327 326 329 329 329 328 329 331 331 332 334 335 335 334 335 333 330 330 328 328 327 326 327 329
326 326 328 328 329 331 330 330 331 332 332 332 332 331 329 329 328 328 328 327 327 328 327 327 329 325 330 331 331 332 332 332 333 335 333 332 332 330 328 325 329 329 329
326 327 327 328 329 332 331 331 332 333 331 331 329 331 328 327 328 328 328 328 327 327 327 328 328 328 330 330 333 334 333 332 331 332 334 332 332 329 328 330 328 328 330
325 327 328 329 328 331 331 330 331 332 332 332 329 330 329 329 327 328 328 328 327 327 330 332 329 330 331 332 332 332 333 332 331 331 331 331 332 332 330 330 329 330 330
Wind_Speed
19 17 11 13 13 12 11 10 9 9 9 8 8 8 8 8 9 8 7 6 6 6 7 10 10 11 11 11 11 12 11 10 13 20 11 6 9 9 17 13 15 18 17
17 16 10 12 14 13 12 12 10 9 8 9 9 10 10 10 11 11 9 8 8 7 9 10 11 11 12 12 11 13 11 9 15 16 13 12 9 14 15 14 13 17 17
13 12 11 10 13 12 12 12 10 11 10 11 11 12 12 13 13 13 13 11 10 9 10 11 12 12 13 13 12 12 11 9 14 20 19 15 12 12 12 16 14 18 14
7 5 8 9 8 8 12 13 12 12 11 12 12 12 13 15 15 15 14 13 12 11 12 12 13 13 13 14 13 12 11 9 11 18 19 17 14 16 18 15 19 20 18
3 11 11 9 8 9 12 14 14 12 12 13 13 14 14 17 17 16 16 17 16 14 13 13 13 14 14 15 15 12 12 11 10 15 18 18 17 18 20 17 21 23 23
5 6 8 8 8 10 13 14 14 14 14 15 15 15 16 17 18 18 18 18 18 18 16 14 14 13 14 15 15 15 13 11 11 15 17 21 20 20 24 22 19 21 20
4 4 5 1 5 7 10 10 11 13 13 14 14 15 15 16 16 16 17 18 20 19 19 17 16 13 12 12 14 15 12 12 10 14 17 20 23 23 25 24 21 22 19
1 1 1 2 5 7 9 10 12 15 17 17 15 14 14 17 19 19 20 20 21 21 22 19 17 15 14 12 13 14 14 12 11 14 17 20 22 28 28 27 25 23 21
2 4 5 4 8 12 9 9 10 11 13 16 17 18 17 17 19 21 20 20 20 22 22 20 18 17 15 12 13 15 15 13 12 12 15 17 25 28 32 31 29 24 19
11 8 2 7 6 5 7 6 9 8 15 13 16 14 12 14 17 19 20 21 21 21 21 21 19 18 15 13 14 14 15 13 13 12 15 19 29 31 30 29 30 31 23
5 6 7 2 4 7 9 10 6 12 12 8 10 10 11 12 12 14 16 18 17 20 20 21 18 16 14 13 13 14 15 13 13 14 16 19 27 33 30 29 30 30 25
8 1 4 2 4 6 8 9 9 12 8 10 14 13 12 11 14 15 13 11 12 16 19 19 16 15 14 13 15 15 16 15 16 15 17 18 29 27 31 33 33 26 26
5 1 3 5 4 5 9 10 12 12 7 8 13 12 12 11 13 14 14 12 12 16 18 18 17 17 16 16 17 14 18 17 16 16 14 17 25 26 28 29 29 28 27
5 1 1 3 3 6 8 11 12 9 8 16 13 13 10 12 13 13 10 12 15 15 21 19 20 18 17 21 17 20 19 17 19 16 13 17 24 24 29 30 29 28 26
1 1 2 2 4 5 8 10 11 14 15 13 14 15 11 12 13 9 10 11 13 16 18 21 22 22 20 21 20 21 22 18 18 18 16 20 22 26 37 35 31 25 25
3 3 2 3 3 5 8 13 13 13 13 15 14 15 10 12 12 11 10 12 13 15 19 19 18 18 18 21 19 19 20 12 19 16 20 23 23 31 33 33 39 28 26
5 5 4 6 6 6 11 10 11 13 14 16 15 10 11 10 13 12 10 11 13 16 17 20 19 13 12 18 20 21 18 17 15 15 23 26 35 34 35 36 36 34 27
6 5 4 4 5 6 9 11 15 11 11 12 14 12 14 13 10 12 9 9 9 15 20 21 20 14 14 18 18 18 14 16 14 17 27 30 30 32 32 34 29 30 33
8 5 4 2 6 6 11 14 14 9 7 10 12 12 12 11 10 12 10 7 6 12 20 21 19 17 17 19 17 21 18 14 14 20 31 31 31 31 32 28 25 26 29
9 6 4 3 4 6 12 14 7 7 6 8 7 10 10 10 9 10 12 9 9 10 16 18 17 19 20 21 15 12 13 13 14 25 33 32 32 30 32 25 28 22 30
10 7 7 4 3 6 10 9 7 7 7 2 5 7 8 12 10 10 11 10 12 11 14 16 18 20 18 19 17 15 10 8 13 21 30 31 32 31 34 36 32 33 28
11 10 7 5 2 4 8 7 3 4 5 4 6 6 4 3 8 9 9 12 13 11 11 14 17 12 13 17 13 11 4 6 15 25 31 33 33 34 33 30 31 31 26
12 10 9 4 2 2 6 7 6 8 8 6 5 7 4 2 6 9 9 11 12 11 11 11 10 8 10 11 15 6 3 3 8 21 27 32 32 33 31 31 32 29 24
13 12 8 5 3 3 5 9 10 10 11 6 3 8 4 3 5 7 10 12 13 12 11 12 13 9 16 13 10 10 11 12 3 7 23 29 29 31 33 32 26 26 27
14 13 10 7 4 1 2 7 9 10 11 11 3 6 8 4 4 10 10 11 10 6 12 12 13 21 21 20 11 16 23 19 10 8 10 17 25 26 27 25 25 24 25
13 14 10 8 4 3 1 5 8 9 12 9 4 7 10 6 4 9 11 11 8 7 10 12 11 16 19 17 21 21 20 13 11 10 8 14 16 23 27 26 26 26 25
Wind_Direction
138 146 150 178 192 202 206 218 227 232 235 244 248 250 260 281 301 317 314 306 289 280 275 274 274 281 279 281 286 293 295 273 238 223 196 238 194 155 198 168 144 142 138
143 157 159 185 202 210 214 225 234 244 250 247 252 253 257 269 281 294 298 296 292 279 271 266 264 271 278 277 280 287 300 277 226 219 212 210 184 183 179 161 152 137 139
115 151 166 193 210 219 229 237 243 250 256 250 250 245 248 257 270 282 290 292 286 280 266 262 262 271 269 272 273 281 292 281 225 216 214 201 201 190 168 165 149 136 143
132 145 189 190 206 238 244 246 251 255 259 261 261 260 252 252 255 265 275 277 278 272 267 260 258 260 263 268 269 273 281 287 229 219 215 199 189 187 173 173 153 149 162
194 212 202 207 229 253 247 251 259 260 258 256 260 261 261 263 263 264 268 269 269 266 261 254 252 253 259 261 263 265 272 283 238 221 210 205 197 184 174 167 154 157 156
254 125 172 197 231 254 253 253 256 260 263 265 265 266 265 265 267 269 265 267 264 258 254 244 243 252 256 258 257 262 259 276 250 222 216 206 199 189 177 169 165 153 152
278 39 130 258 264 262 264 257 258 261 261 261 265 264 265 266 269 268 265 261 259 256 245 238 241 246 256 260 260 258 250 261 249 225 222 215 206 185 174 165 162 153 152
4 245 45 315 284 285 286 274 263 264 268 270 269 270 272 271 272 271 266 261 258 252 240 232 232 241 253 265 259 248 244 254 257 231 223 212 200 185 171 163 161 150 156
194 209 222 228 286 277 263 254 255 268 285 287 285 285 279 275 275 272 267 261 257 246 236 227 228 236 247 260 255 240 240 245 248 238 220 205 211 176 169 164 155 149 160
201 216 184 268 272 300 266 252 265 297 302 296 312 301 292 282 272 270 260 256 252 242 229 224 223 234 237 245 246 233 234 240 235 219 209 194 181 167 165 169 164 162 164
190 238 240 267 310 300 289 276 279 305 290 300 305 304 294 296 284 280 272 256 247 232 222 222 221 226 228 233 237 230 226 234 230 213 200 192 182 169 180 180 176 171 165
208 208 329 297 278 301 289 284 285 292 264 274 290 293 300 281 274 274 274 266 242 225 220 213 213 220 226 226 237 229 218 217 220 209 200 200 188 180 179 176 170 173 171
54 33 3 326 280 286 290 295 283 275 269 299 302 280 279 286 282 272 262 248 243 216 209 207 209 216 221 216 228 215 212 215 208 202 201 200 187 185 173 165 165 168 176
160 26 318 309 299 288 285 291 296 286 303 302 279 278 272 278 274 273 263 258 233 219 209 204 209 216 214 215 224 210 209 214 199 192 192 189 182 179 161 163 164 170 178
161 113 301 293 283 279 278 287 288 289 288 273 276 265 246 266 273 275 271 259 236 219 213 210 208 213 217 216 213 212 210 217 198 181 179 175 171 172 164 166 163 170 168
192 229 239 273 274 277 280 281 281 284 276 274 277 269 242 264 266 262 269 263 248 228 210 207 208 209 220 208 202 209 220 205 193 171 171 173 173 160 159 156 161 166 173
200 211 237 254 240 268 277 290 290 288 280 272 270 266 245 256 264 261 263 269 238 229 207 210 213 209 207 193 206 214 224 184 177 160 170 161 161 162 163 157 158 169 164
219 198 228 274 295 282 298 297 300 290 280 278 275 270 252 252 258 260 255 259 249 208 196 207 211 206 196 197 192 210 188 178 179 171 170 163 167 165 162 162 168 164 161
202 213 223 257 274 306 299 288 303 296 291 283 276 274 267 257 264 252 251 229 213 188 189 198 196 193 190 195 197 194 164 167 168 172 162 161 162 163 168 166 168 161 162
197 196 213 253 284 306 305 312 276 303 309 295 275 281 274 265 260 250 246 216 205 184 187 192 204 190 186 187 193 197 166 174 175 173 152 152 160 166 158 166 162 161 162
193 194 213 223 274 299 305 340 330 335 338 304 331 296 286 266 236 244 239 206 194 193 190 189 183 183 188 188 155 154 145 142 175 170 152 147 156 155 155 152 154 157 163
192 206 196 219 240 297 313 331 322 320 305 310 336 354 312 276 206 226 212 183 178 184 185 184 177 181 192 177 162 126 128 91 131 142 143 147 147 154 152 163 161 163 164
197 189 198 174 214 298 310 316 332 339 322 306 339 352 19 196 187 195 191 174 172 169 179 176 160 184 153 151 158 144 125 141 140 134 136 140 145 150 159 158 155 156 170
193 187 162 170 215 190 348 356 348 352 340 317 7 13 59 109 173 182 185 169 175 179 170 153 138 129 138 159 133 118 95 103 147 133 129 137 141 148 149 156 161 168 168
187 168 168 173 179 152 36 10 9 5 353 356 16 40 86 114 119 182 175 180 183 181 176 157 159 166 158 177 143 117 109 106 95 119 118 124 128 144 152 155 158 166 172
170 164 168 184 174 213 77 20 3 350 355 11 61 70 66 57 107 161 173 188 181 188 183 159 157 150 148 139 136 137 126 120 135 109 115 124 126 137 152 156 162 168 164